Regional Weather Roundup
Issued by NWS

Home | Current Version | Previous Version | Text Only | Print | Product List | Glossary Off
Versions: 1 2 3 4 5 6 7 8 9 10 11 12 13 14 15 16 17 18 19 20 21 22 23 24 25 26 27 28 29 30 31 32 33 34 35 36 37 38 39 40 41 42 43 44 45 46 47 48 49 50

000
ASUS43 KIND 021659
RWRIN

WEATHER ROUNDUP FOR INDIANA
NATIONAL WEATHER SERVICE INDIANAPOLIS IN
100 PM EDT THU JUL 02 2015

NOTE: "FAIR" INDICATES FEW OR NO CLOUDS BELOW 12,000 FEET WITH NO
SIGNIFICANT WEATHER AND/OR OBSTRUCTIONS TO VISIBILITY.

* - STATION DOES NOT REPORT WEATHER SUCH AS PRECIPITATION OR FOG.

+ - STATION NOT QUALITY CONTROLLED BY THE NATIONAL WEATHER SERVICE.
    USE DATA WITH CAUTION...ESPECIALLY DEWPOINT AND RELATIVE
    HUMIDITY OBSERVATIONS.

INZ001>003-010>013-019-020-021800-
NORTHWEST INDIANA

CITY           SKY/WX    TMP DP  RH WIND       PRES   REMARKS
GARY /AIRPORT/ MOSUNNY   66  59  77 N14       30.01S
RENSSELAER +   PTSUNNY   72  61  68 E10       29.96S

$$

LMZ046-743>745-021800-
SOUTHERN LAKE MICHIGAN

STATION/POSITION TIME  TEMP    WIND        PRES    WAVE
                       AIR SEA DIR/SP/G            HT
                 (UTC) (F)     (DEG/KT/KT) (MB)    (FT)
BURNS HARBOR     1600   62      20/ 12/ 15 1016.3S
MICHIGAN CITY    1600   60     360/ 15/ 16   N/A
5NW MICH CITY    1600   62 64   30/ 12/ 16   N/A     3

$$

INZ004-005-014>016-021>024-021800-
NORTH CENTRAL INDIANA

CITY           SKY/WX    TMP DP  RH WIND       PRES   REMARKS
ELKHART        PTSUNNY   72  55  56 E10       30.00R
GOSHEN         PTSUNNY   70  58  65 E10G17    29.98F
SOUTH BEND     PTSUNNY   71  54  54 NE7       29.99S

$$

INZ006>009-017-018-025>027-021800-
NORTHEAST INDIANA

CITY           SKY/WX    TMP DP  RH WIND       PRES   REMARKS
ANGOLA *+        N/A     68  59  73 E8        30.00S
FORT WAYNE     PTSUNNY   70  61  73 NE13      29.97F

$$

INZ028-029-035-036-043>045-051>053-021800-
WEST CENTRAL INDIANA

CITY           SKY/WX    TMP DP  RH WIND       PRES   REMARKS
CRAWFORDSVL +  SUNNY     71  58  65 NE7       29.92F
GREENCASTLE +  PTSUNNY   72  59  64 NE5       29.92S
LAFAYETTE      MOSUNNY   69  59  70 NE7       29.94F
TERRE HAUTE    MOSUNNY   75  64  68 NE7       29.90F

$$

INZ030>032-037>040-046>048-054>057-064-065-021800-
CENTRAL INDIANA

CITY           SKY/WX    TMP DP  RH WIND       PRES   REMARKS
ANDERSON       CLOUDY    72  57  60 E6        29.94
GREENWOOD *+   SUNNY     75  61  60 E6        29.92S
INDIANAPOLIS   PTSUNNY   76  61  59 N9        29.89F
-EAGLE CREEK     N/A     74  62  66 NE9       29.91S
KOKOMO *+      MOSUNNY   73  63  68 E9        29.94F
MT COMFORT *+  SUNNY     73  57  56 N8        29.92S
SHELBYVILLE    MOSUNNY   76  65  68 E7        29.90F

$$

INZ033-034-041-042-049-050-058-059-021800-
EAST CENTRAL INDIANA

CITY           SKY/WX    TMP DP  RH WIND       PRES   REMARKS
MUNCIE         PTSUNNY   74  62  66 E12       29.93F

$$

INZ060-061-067>069-081>083-085>088-021800-
SOUTHWEST INDIANA

CITY           SKY/WX    TMP DP  RH WIND       PRES   REMARKS
EVANSVILLE     PTSUNNY   76  67  73 CALM      29.88F
HUNTINGBURG *+ CLOUDY    73  66  78 SW8       29.89S

$$

INZ062-063-066-070>080-084-089>092-021800-
SOUTH CENTRAL AND SOUTHEAST INDIANA

CITY           SKY/WX    TMP DP  RH WIND       PRES   REMARKS
BLOOMINGTON    PTSUNNY   74  66  76 N5        29.89F
MADISON *+     PTSUNNY   75  68  78 E3        29.90F
SEYMOUR +      CLOUDY    77  70  78 N8        29.88F

$$




USA.gov is the U.S. government's official web portal to all federal, state and local government web resources and services.